| time (UTC) | temp C | wind direction | speed KPH | gust KPH | rain 1hr cm | rain 24hr cm | rain mn cm | humidity % | barometer mb |
| 20260504215000 | 26 | 195 | 14.5 | 33.8 | 0.00 | 0.00 | 0.00 | 39 | 1006.8 |
| 20260504214500 | 26 | 209 | 14.5 | 35.4 | 0.00 | 0.00 | 0.00 | 40 | 1006.8 |
| 20260504214000 | 26 | 197 | 22.5 | 35.4 | 0.00 | 0.00 | 0.00 | 40 | 1006.9 |
| 20260504213500 | 26 | 219 | 20.9 | 27.4 | 0.00 | 0.00 | 0.00 | 40 | 1007.0 |
| 20260504213000 | 25 | 219 | 14.5 | 33.8 | 0.00 | 0.00 | 0.00 | 43 | 1007.0 |
| 20260504212500 | 26 | 192 | 22.5 | 33.8 | 0.00 | 0.00 | 0.00 | 40 | 1007.1 |
| 20260504212000 | 26 | 205 | 29.0 | 32.2 | 0.00 | 0.00 | 0.00 | 41 | 1007.2 |
| 20260504211500 | 26 | 203 | 17.7 | 32.2 | 0.00 | 0.00 | 0.00 | 39 | 1007.2 |
| 20260504211000 | 26 | 208 | 22.5 | 32.2 | 0.00 | 0.00 | 0.00 | 40 | 1007.3 |
| 20260504210500 | 26 | 190 | 22.5 | 32.2 | 0.00 | 0.00 | 0.00 | 40 | 1007.3 |
| 20260504210000 | 26 | 198 | 14.5 | 33.8 | 0.00 | 0.00 | 0.00 | 43 | 1007.4 |
| 20260504205500 | 26 | 200 | 27.4 | 33.8 | 0.00 | 0.00 | 0.00 | 39 | 1007.3 |
| 20260504205000 | 26 | 196 | 14.5 | 35.4 | 0.00 | 0.00 | 0.00 | 40 | 1007.5 |
| 20260504204500 | 25 | 212 | 19.3 | 35.4 | 0.00 | 0.00 | 0.00 | 40 | 1007.6 |
| 20260504204000 | 25 | 202 | 20.9 | 40.2 | 0.00 | 0.00 | 0.00 | 40 | 1007.6 |
| 20260504203500 | 26 | 203 | 27.4 | 41.8 | 0.00 | 0.00 | 0.00 | 39 | 1007.7 |
| 20260504203000 | 26 | 206 | 30.6 | 41.8 | 0.00 | 0.00 | 0.00 | 40 | 1007.8 |
| 20260504202500 | 25 | 211 | 24.1 | 38.6 | 0.00 | 0.00 | 0.00 | 40 | 1008.1 |
| 20260504202000 | 25 | 214 | 16.1 | 38.6 | 0.00 | 0.00 | 0.00 | 41 | 1008.2 |
| 20260504201500 | 26 | 187 | 20.9 | 30.6 | 0.00 | 0.00 | 0.00 | 40 | 1008.2 |
| 20260504201000 | 26 | 242 | 29.0 | 35.4 | 0.00 | 0.00 | 0.00 | 40 | 1008.2 |
| 20260504200500 | 26 | 196 | 20.9 | 35.4 | 0.00 | 0.00 | 0.00 | 39 | 1008.4 |
| 20260504200000 | 26 | 183 | 20.9 | 35.4 | 0.00 | 0.00 | 0.00 | 41 | 1008.4 |
| 20260504195500 | 26 | 213 | 17.7 | 38.6 | 0.00 | 0.00 | 0.00 | 41 | 1008.3 |
| 20260504195000 | 26 | 207 | 27.4 | 38.6 | 0.00 | 0.00 | 0.00 | 39 | 1008.4 |
| 20260504194500 | 25 | 200 | 20.9 | 35.4 | 0.00 | 0.00 | 0.00 | 42 | 1008.4 |
| 20260504194000 | 25 | 212 | 30.6 | 33.8 | 0.00 | 0.00 | 0.00 | 40 | 1008.4 |
| 20260504193500 | 25 | 234 | 14.5 | 32.2 | 0.00 | 0.00 | 0.00 | 39 | 1008.8 |
| 20260504193000 | 25 | 232 | 17.7 | 35.4 | 0.00 | 0.00 | 0.00 | 42 | 1008.9 |
| 20260504192500 | 25 | 210 | 19.3 | 43.5 | 0.00 | 0.00 | 0.00 | 41 | 1008.8 |
| 20260504192000 | 26 | 224 | 35.4 | 43.5 | 0.00 | 0.00 | 0.00 | 39 | 1009.0 |
| 20260504191506 | 26 | 209 | 16.1 | 40.2 | 0.00 | 0.00 | 0.00 | 39 | 1009.0 |
| 20260504191000 | 26 | 196 | 32.2 | 35.4 | 0.00 | 0.00 | 0.00 | 40 | 1008.9 |
| 20260504190500 | 26 | 198 | 20.9 | 35.4 | 0.00 | 0.00 | 0.00 | 43 | 1009.1 |
| 20260504190006 | 25 | 218 | 12.9 | 45.1 | 0.00 | 0.00 | 0.00 | 41 | 1009.2 |
| 20260504185506 | 25 | 241 | 24.1 | 45.1 | 0.00 | 0.00 | 0.00 | 39 | 1009.0 |
| 20260504185000 | 25 | 209 | 16.1 | 41.8 | 0.00 | 0.00 | 0.00 | 42 | 1009.3 |
| 20260504184500 | 26 | 199 | 16.1 | 38.6 | 0.00 | 0.00 | 0.00 | 40 | 1009.4 |
| 20260504184000 | 26 | 204 | 30.6 | 38.6 | 0.00 | 0.00 | 0.00 | 40 | 1009.3 |
| 20260504183500 | 25 | 207 | 19.3 | 37.0 | 0.00 | 0.00 | 0.00 | 44 | 1009.5 |
| 20260504183000 | 25 | 199 | 17.7 | 57.9 | 0.00 | 0.00 | 0.00 | 43 | 1009.6 |
| 20260504182500 | 25 | 199 | 27.4 | 57.9 | 0.00 | 0.00 | 0.00 | 41 | 1009.5 |
| 20260504182000 | 25 | 180 | 38.6 | 45.1 | 0.00 | 0.00 | 0.00 | 41 | 1009.2 |
| 20260504181500 | 25 | 210 | 16.1 | 45.1 | 0.00 | 0.00 | 0.00 | 44 | 1009.7 |
| 20260504181000 | 25 | 189 | 24.1 | 40.2 | 0.00 | 0.00 | 0.00 | 43 | 1009.7 |
| 20260504180500 | 25 | 211 | 32.2 | 41.8 | 0.00 | 0.00 | 0.00 | 42 | 1009.6 |
| 20260504180000 | 25 | 227 | 24.1 | 41.8 | 0.00 | 0.00 | 0.00 | 42 | 1009.8 |
| 20260504175500 | 25 | 215 | 24.1 | 38.6 | 0.00 | 0.00 | 0.00 | 44 | 1009.9 |
| 20260504175000 | 25 | 216 | 27.4 | 33.8 | 0.00 | 0.00 | 0.00 | 44 | 1009.7 |
| 20260504174500 | 25 | 231 | 22.5 | 40.2 | 0.00 | 0.00 | 0.00 | 45 | 1010.1 |
| 20260504174000 | 24 | 207 | 25.7 | 40.2 | 0.00 | 0.00 | 0.00 | 44 | 1010.0 |
| 20260504173500 | 25 | 224 | 24.1 | 38.6 | 0.00 | 0.00 | 0.00 | 43 | 1010.3 |
| 20260504173000 | 25 | 202 | 29.0 | 38.6 | 0.00 | 0.00 | 0.00 | 42 | 1010.1 |
| 20260504172500 | 25 | 213 | 32.2 | 38.6 | 0.00 | 0.00 | 0.00 | 41 | 1010.0 |
| 20260504172000 | 24 | 201 | 27.4 | 38.6 | 0.00 | 0.00 | 0.00 | 46 | 1010.2 |
| 20260504171500 | 25 | 241 | 16.1 | 37.0 | 0.00 | 0.00 | 0.00 | 47 | 1010.4 |
| 20260504171001 | 24 | 239 | 25.7 | 38.6 | 0.00 | 0.00 | 0.00 | 48 | 1010.3 |
| 20260504170500 | 24 | 237 | 25.7 | 38.6 | 0.00 | 0.00 | 0.00 | 45 | 1010.4 |
| 20260504151000 | 21 | 211 | 14.5 | 20.9 | 0.00 | 0.00 | 0.00 | 61 | 1011.0 |
| 20260504150500 | 21 | 216 | 20.9 | 24.1 | 0.00 | 0.00 | 0.00 | 61 | 1010.9 |
| 20260504141000 | 19 | 187 | 14.5 | 19.3 | 0.00 | 0.00 | 0.00 | 66 | 1011.2 |
| 20260504140500 | 19 | 217 | 12.9 | 20.9 | 0.00 | 0.00 | 0.00 | 65 | 1011.2 |
| 20260504130500 | 17 | 228 | 9.7 | 17.7 | 0.00 | 0.00 | 0.00 | 71 | 1010.8 |
| 20260504110500 | 15 | 214 | 11.3 | 16.1 | 0.00 | 0.00 | 0.00 | 76 | 1009.7 |
| 20260504100500 | 16 | 212 | 14.5 | 14.5 | 0.00 | 0.00 | 0.00 | 72 | 1009.8 |
| 20260504082000 | 16 | 195 | 9.7 | 14.5 | 0.00 | 0.00 | 0.00 | 72 | 1010.1 |
| 20260504081500 | 16 | 213 | 9.7 | 14.5 | 0.00 | 0.00 | 0.00 | 72 | 1010.2 |
| 20260504081000 | 16 | 201 | 11.3 | 12.9 | 0.00 | 0.00 | 0.00 | 72 | 1010.2 |
| 20260504080500 | 16 | 223 | 11.3 | 11.3 | 0.00 | 0.00 | 0.00 | 72 | 1010.2 |
| 20260504050500 | 17 | 190 | 8.0 | 11.3 | 0.00 | 0.00 | 0.00 | 67 | 1011.2 |
| 20260504050000 | 17 | 198 | 8.0 | 11.3 | 0.00 | 0.00 | 0.00 | 67 | 1011.2 |
| 20260504045500 | 17 | 195 | 9.7 | 12.9 | 0.00 | 0.00 | 0.00 | 67 | 1011.2 |
| 20260504045000 | 18 | 201 | 8.0 | 14.5 | 0.00 | 0.00 | 0.00 | 66 | 1011.2 |
| 20260504044500 | 18 | 183 | 9.7 | 14.5 | 0.00 | 0.00 | 0.00 | 65 | 1011.2 |
| 20260504044000 | 18 | 198 | 6.4 | 16.1 | 0.00 | 0.00 | 0.00 | 65 | 1011.3 |
| 20260504043500 | 18 | 186 | 9.7 | 16.1 | 0.00 | 0.00 | 0.00 | 65 | 1011.4 |
| 20260504043000 | 18 | 197 | 9.7 | 14.5 | 0.00 | 0.00 | 0.00 | 65 | 1011.4 |
| 20260504042500 | 18 | 195 | 14.5 | 14.5 | 0.00 | 0.00 | 0.00 | 65 | 1011.4 |
| 20260504042000 | 18 | 194 | 8.0 | 14.5 | 0.00 | 0.00 | 0.00 | 65 | 1011.5 |
| 20260504041500 | 18 | 194 | 11.3 | 14.5 | 0.00 | 0.00 | 0.00 | 65 | 1011.5 |
| 20260504041000 | 18 | 193 | 9.7 | 14.5 | 0.00 | 0.00 | 0.00 | 65 | 1011.5 |
| 20260504040500 | 18 | 196 | 8.0 | 12.9 | 0.00 | 0.00 | 0.00 | 65 | 1011.6 |
| 20260504040000 | 18 | 193 | 8.0 | 12.9 | 0.00 | 0.00 | 0.00 | 66 | 1011.6 |
| 20260504035500 | 18 | 194 | 9.7 | 12.9 | 0.00 | 0.00 | 0.00 | 65 | 1011.6 |
| 20260504035000 | 18 | 200 | 6.4 | 9.7 | 0.00 | 0.00 | 0.00 | 66 | 1011.7 |
| 20260504034500 | 18 | 190 | 8.0 | 9.7 | 0.00 | 0.00 | 0.00 | 65 | 1011.7 |
| 20260504034000 | 18 | 170 | 6.4 | 11.3 | 0.00 | 0.00 | 0.00 | 65 | 1011.6 |
| 20260504033500 | 18 | 193 | 8.0 | 11.3 | 0.00 | 0.00 | 0.00 | 65 | 1011.6 |
| 20260504033000 | 18 | 183 | 8.0 | 9.7 | 0.00 | 0.00 | 0.00 | 65 | 1011.7 |
| 20260504032500 | 18 | 183 | 6.4 | 9.7 | 0.00 | 0.00 | 0.00 | 65 | 1011.7 |
| 20260504032000 | 18 | 182 | 6.4 | 12.9 | 0.00 | 0.00 | 0.00 | 64 | 1011.7 |
| 20260504031500 | 18 | 180 | 9.7 | 12.9 | 0.00 | 0.00 | 0.00 | 64 | 1011.7 |
| 20260504031000 | 19 | 187 | 9.7 | 12.9 | 0.00 | 0.00 | 0.00 | 63 | 1011.7 |
| 20260504030500 | 19 | 192 | 6.4 | 12.9 | 0.00 | 0.00 | 0.00 | 62 | 1011.6 |
| 20260504030000 | 19 | 189 | 9.7 | 11.3 | 0.00 | 0.00 | 0.00 | 61 | 1011.7 |
| 20260504025500 | 19 | 197 | 8.0 | 11.3 | 0.00 | 0.00 | 0.00 | 62 | 1011.6 |
| 20260504025000 | 19 | 182 | 8.0 | 9.7 | 0.00 | 0.00 | 0.00 | 63 | 1011.6 |
| 20260504024500 | 19 | 182 | 6.4 | 11.3 | 0.00 | 0.00 | 0.00 | 62 | 1011.6 |
| 20260504024000 | 19 | 190 | 8.0 | 11.3 | 0.00 | 0.00 | 0.00 | 61 | 1011.6 |
| 20260504023500 | 19 | 175 | 9.7 | 11.3 | 0.00 | 0.00 | 0.00 | 62 | 1011.5 |
| 20260504023000 | 18 | 183 | 8.0 | 8.0 | 0.00 | 0.00 | 0.00 | 65 | 1011.6 |
| 20260504022500 | 18 | 199 | 4.8 | 9.7 | 0.00 | 0.00 | 0.00 | 67 | 1011.5 |
| 20260504022000 | 19 | 188 | 6.4 | 9.7 | 0.00 | 0.00 | 0.00 | 66 | 1011.5 |
| 20260504021500 | 19 | 188 | 6.4 | 8.0 | 0.00 | 0.00 | 0.00 | 65 | 1011.5 |
| 20260504021000 | 19 | 181 | 6.4 | 8.0 | 0.00 | 0.00 | 0.00 | 65 | 1011.5 |
| 20260504020500 | 19 | 188 | 8.0 | 8.0 | 0.00 | 0.00 | 0.00 | 66 | 1011.5 |
| 20260504020000 | 19 | 186 | 6.4 | 8.0 | 0.00 | 0.00 | 0.00 | 67 | 1011.4 |
| 20260504015500 | 19 | 196 | 6.4 | 8.0 | 0.00 | 0.00 | 0.00 | 68 | 1011.5 |
| 20260504015000 | 19 | 197 | 6.4 | 8.0 | 0.00 | 0.00 | 0.00 | 65 | 1011.4 |
| 20260504014500 | 19 | 193 | 6.4 | 8.0 | 0.00 | 0.00 | 0.00 | 66 | 1011.4 |
| 20260504014000 | 19 | 196 | 8.0 | 8.0 | 0.00 | 0.00 | 0.00 | 66 | 1011.4 |
| 20260504013500 | 20 | 194 | 6.4 | 6.4 | 0.00 | 0.00 | 0.00 | 64 | 1011.4 |
| 20260504013000 | 20 | 198 | 6.4 | 6.4 | 0.00 | 0.00 | 0.00 | 60 | 1011.4 |
| 20260504012500 | 20 | 193 | 6.4 | 6.4 | 0.00 | 0.00 | 0.00 | 60 | 1011.4 |
| 20260504012000 | 20 | 195 | 4.8 | 6.4 | 0.00 | 0.00 | 0.00 | 61 | 1011.4 |
| 20260504011500 | 20 | 189 | 4.8 | 8.0 | 0.00 | 0.00 | 0.00 | 60 | 1011.4 |
| 20260504011000 | 21 | 183 | 6.4 | 8.0 | 0.00 | 0.00 | 0.00 | 61 | 1011.4 |
| 20260504010500 | 22 | 189 | 6.4 | 6.4 | 0.00 | 0.00 | 0.00 | 51 | 1011.5 |
| 20260504010000 | 22 | 199 | 4.8 | 6.4 | 0.00 | 0.00 | 0.00 | 47 | 1011.4 |
| 20260504005500 | 22 | 208 | 6.4 | 6.4 | 0.00 | 0.00 | 0.00 | 48 | 1011.5 |
| 20260504005000 | 22 | 203 | 4.8 | 6.4 | 0.00 | 0.00 | 0.00 | 47 | 1011.5 |
| 20260504004500 | 22 | 202 | 6.4 | 6.4 | 0.00 | 0.00 | 0.00 | 49 | 1011.5 |
| 20260504004000 | 22 | 198 | 4.8 | 8.0 | 0.00 | 0.00 | 0.00 | 51 | 1011.6 |
| 20260504003500 | 23 | 202 | 6.4 | 9.7 | 0.00 | 0.00 | 0.00 | 48 | 1011.7 |
| 20260504003000 | 23 | 207 | 6.4 | 9.7 | 0.00 | 0.00 | 0.00 | 47 | 1011.8 |
| 20260504002500 | 23 | 215 | 8.0 | 9.7 | 0.00 | 0.00 | 0.00 | 44 | 1011.8 |
| 20260504002000 | 24 | 209 | 9.7 | 9.7 | 0.00 | 0.00 | 0.00 | 44 | 1011.8 |
| 20260504001500 | 24 | 235 | 6.4 | 11.3 | 0.00 | 0.00 | 0.00 | 44 | 1011.8 |
| 20260504001000 | 25 | 217 | 9.7 | 12.9 | 0.00 | 0.00 | 0.00 | 41 | 1011.9 |
| 20260504000500 | 25 | 205 | 4.8 | 12.9 | 0.00 | 0.00 | 0.00 | 42 | 1011.9 |
| 20260504000000 | 25 | 204 | 11.3 | 17.7 | 0.00 | 0.00 | 0.00 | 41 | 1011.9 |
| 20260503235500 | 25 | 209 | 8.0 | 17.7 | 0.00 | 0.00 | 0.00 | 41 | 1011.8 |
| 20260503235000 | 25 | 233 | 9.7 | 17.7 | 0.00 | 0.00 | 0.00 | 39 | 1011.8 |
| 20260503234500 | 25 | 213 | 14.5 | 17.7 | 0.00 | 0.00 | 0.00 | 38 | 1011.7 |
| 20260503234000 | 25 | 218 | 9.7 | 17.7 | 0.00 | 0.00 | 0.00 | 40 | 1011.8 |
| 20260503233500 | 25 | 195 | 9.7 | 17.7 | 0.00 | 0.00 | 0.00 | 41 | 1011.8 |
| 20260503233000 | 25 | 209 | 11.3 | 16.1 | 0.00 | 0.00 | 0.00 | 40 | 1011.8 |
| 20260503232501 | 25 | 233 | 9.7 | 16.1 | 0.00 | 0.00 | 0.00 | 41 | 1011.9 |
| 20260503232000 | 25 | 230 | 11.3 | 16.1 | 0.00 | 0.00 | 0.00 | 38 | 1012.0 |
| 20260503231500 | 25 | 229 | 11.3 | 19.3 | 0.00 | 0.00 | 0.00 | 37 | 1012.1 |
| 20260503231000 | 25 | 238 | 11.3 | 20.9 | 0.00 | 0.00 | 0.00 | 36 | 1012.1 |
| 20260503230500 | 25 | 228 | 17.7 | 20.9 | 0.00 | 0.00 | 0.00 | 36 | 1012.2 |
| 20260503230000 | 25 | 242 | 11.3 | 19.3 | 0.00 | 0.00 | 0.00 | 37 | 1012.2 |
| 20260503225500 | 25 | 219 | 11.3 | 14.5 | 0.00 | 0.00 | 0.00 | 39 | 1012.3 |
| 20260503225000 | 25 | 258 | 3.2 | 14.5 | 0.00 | 0.00 | 0.00 | 41 | 1012.4 |
| 20260503224500 | 25 | 239 | 12.9 | 20.9 | 0.00 | 0.00 | 0.00 | 38 | 1012.3 |
| 20260503224000 | 25 | 231 | 6.4 | 20.9 | 0.00 | 0.00 | 0.00 | 40 | 1012.5 |
| 20260503223500 | 25 | 214 | 14.5 | 19.3 | 0.00 | 0.00 | 0.00 | 38 | 1012.4 |
| 20260503223000 | 25 | 222 | 12.9 | 29.0 | 0.00 | 0.00 | 0.00 | 35 | 1012.5 |
| 20260503222500 | 26 | 237 | 9.7 | 29.0 | 0.00 | 0.00 | 0.00 | 40 | 1012.5 |
| 20260503222000 | 25 | 215 | 9.7 | 19.3 | 0.00 | 0.00 | 0.00 | 37 | 1012.5 |
| 20260503221500 | 25 | 245 | 12.9 | 17.7 | 0.00 | 0.00 | 0.00 | 38 | 1012.6 |
| 20260503221000 | 25 | 232 | 8.0 | 17.7 | 0.00 | 0.00 | 0.00 | 35 | 1012.6 |
| 20260503220500 | 25 | 243 | 11.3 | 24.1 | 0.00 | 0.00 | 0.00 | 34 | 1012.7 |
| 20260503220000 | 25 | 234 | 11.3 | 24.1 | 0.00 | 0.00 | 0.00 | 37 | 1012.7 |
| 20260503215500 | 25 | 239 | 16.1 | 27.4 | 0.00 | 0.00 | 0.00 | 39 | 1012.7 |